Location: Morisset
(33.1080°S, 151.4871°E)
Time: 07:28:07
(UTC+00:00)

IDEFIX/ARIANE 42P - Pass Details

Date: 29 October 2020
Orbit: 784 x 803 km, 98.4° (Epoch: 28 November)

Event Time Altitude Azimuth Distance (km) Brightness Sun altitude
Exits shadow 16:44:01 35° 232° (SW) 1,256 3.4 -25.4°
Drops below altitude 10° 16:47:24 10° 205° (SSW) 2,374 5.2 -24.9°
Sets 16:49:50 0° 199° (SSW) 3,312 6.0 -24.5°
